Вернуться в каталог

WILDFIRE 7

АктивенНаукаPO
NORAD 57761·PAYLOAD·🇺🇸 United States

Запущен Sep 2, 2023 с Vandenberg Space Force Base

Loading…

Ближайшие Пролёты (ближайшие 24 часа)

TLE

СвежийSource: Space-Track

Эпоха: Sep 14, 2026, 11:54 UTC

1 57761U 23133E   26257.49603557  .00000045  00000-0  30030-4 0  9998
2 57761  80.9958 282.2422 0006058 144.8985 215.2571 13.85112830153359

Отслеживайте WILDFIRE 7 в реальном времени с AllMySat

Download on the App Store